GSAT-7A

Last updated on Jan. 26, 2020, 4:40 a.m. UTC

1 43864U 18105A   20025.78409939  .00000019  00000-0  00000+0 0  9997
2 43864   0.0597 263.9614 0001872   3.4119 202.1962  1.00274337  4064
UTC
Height (km)
Latitude
Longitude
Inclination
Orbital Period
UTC large
Height (km)
Speed (km/s)
/
Latitude / Longitude
Inclination (degrees)
Orbital Period (minutes)
Azimuth
Elevation
Range (km)
Doppler Factor
iOS Compass Heading
iOS Angle

Next 30 passes for location: Hong Kong

Rise time Rise Azimuth (degrees) Set time Set Azimuth (degrees) Duration Max altitude (degrees)

No matching passes for this satellites